Wind_Speed
19 18 16 13 11 9 8 6 3 2 4 6 7 9 8 9 10 11 11 12 13 13 13 13 13 13 13 13 14 13 13 12 12 12 12 11 10 10 9 8 8 7 6 6
21 19 16 15 13 12 11 8 5 4 5 6 6 7 7 7 8 9 9 10 11 11 12 12 11 12 12 12 12 12 12 12 11 11 11 10 10 9 8 8 8 7 7 6
22 19 18 17 16 15 13 11 8 6 6 6 7 8 7 6 6 7 7 8 8 9 11 12 12 11 11 11 11 11 10 10 10 10 10 10 10 10 9 9 8 8 7 7
23 21 21 20 19 17 15 13 11 10 10 9 9 9 8 7 6 7 7 7 8 8 10 11 11 11 10 9 9 10 10 9 9 9 9 9 10 9 9 8 7 7 7 6
24 23 24 22 20 19 17 16 14 13 13 11 11 10 9 9 8 8 9 7 7 7 8 10 10 10 10 9 8 8 9 9 9 9 9 9 9 8 8 7 7 7 6 6
26 25 25 24 22 21 19 19 17 17 15 13 12 12 10 9 7 8 9 7 6 7 7 8 8 8 8 8 8 7 8 8 8 8 8 8 8 8 7 7 7 7 6 6
28 27 27 25 25 24 23 22 21 20 18 16 13 13 10 9 8 8 8 6 7 6 5 6 7 7 8 8 7 6 7 8 8 8 8 7 8 8 8 7 7 7 6 6
29 29 27 27 27 26 26 25 24 23 21 18 16 15 12 9 9 10 8 7 7 5 5 5 5 6 6 7 7 7 7 7 8 8 8 7 8 8 8 8 7 8 7 7
29 28 28 28 27 26 26 27 25 24 23 21 18 16 13 12 11 12 10 8 7 6 5 5 6 6 6 7 8 8 8 7 7 8 8 7 8 8 8 8 8 8 8 7
29 28 28 28 27 27 26 25 27 27 25 24 22 19 16 14 12 13 12 10 8 7 6 6 6 7 8 8 8 8 8 8 8 8 9 8 8 8 8 9 9 9 8 8
29 29 29 29 30 28 27 28 28 28 28 26 25 21 16 15 14 13 12 11 9 7 7 6 7 8 8 9 9 8 8 8 8 8 9 9 8 9 9 9 9 9 9 10
29 31 31 31 30 29 27 27 28 29 29 28 26 23 18 16 14 13 14 14 11 9 8 8 8 9 10 10 9 9 9 9 8 9 10 10 9 9 10 10 10 10 11 11
30 32 31 31 31 32 30 28 28 29 29 29 28 25 22 19 16 16 15 15 13 11 11 11 10 11 11 11 10 9 10 10 9 10 10 10 10 11 11 11 11 11 12 12
32 33 33 32 31 33 33 30 29 30 31 30 28 26 24 21 20 18 17 16 15 15 15 14 12 12 12 11 10 10 10 11 11 11 11 11 12 12 12 12 12 12 12 12
34 34 33 32 31 32 33 32 30 31 31 32 29 28 26 24 23 21 19 18 17 16 16 15 15 15 14 13 12 11 11 12 12 12 13 13 13 12 13 13 13 13 13 14
35 36 35 33 33 33 33 33 32 32 32 32 31 29 27 25 24 23 22 21 19 18 18 18 18 17 16 14 13 13 13 13 14 14 14 14 14 14 14 14 14 14 14 15
35 35 35 35 35 35 35 34 33 33 33 33 32 30 28 27 26 25 24 23 21 20 19 20 20 19 18 17 16 16 16 15 16 16 15 15 16 16 16 15 15 16 16 16
35 35 35 35 35 37 35 35 35 34 35 35 34 31 31 29 28 28 27 26 25 24 22 22 22 21 20 19 19 19 19 18 18 17 17 17 17 17 17 17 17 17 18 18
36 35 36 36 36 36 35 34 34 34 34 35 35 34 33 32 30 30 28 28 27 26 25 24 24 24 23 22 22 22 21 21 20 20 19 19 18 18 18 18 19 19 19 19
36 36 37 37 37 36 35 34 34 34 34 35 35 35 34 33 32 31 29 28 28 28 27 26 26 26 26 24 24 23 23 23 22 21 21 21 20 19 19 20 20 20 20 21
36 37 36 37 37 36 34 34 34 34 34 34 35 36 35 34 33 32 31 30 30 30 29 27 27 26 26 25 25 24 24 23 23 23 22 21 21 21 21 21 22 21 21 21
37 37 35 35 37 37 36 35 35 34 34 34 35 35 35 34 33 32 31 30 30 30 30 28 28 27 27 27 27 26 25 25 24 24 23 22 22 22 22 22 22 22 22 23
38 38 37 36 36 36 36 37 35 34 34 34 35 35 35 34 33 33 32 31 31 31 32 31 29 28 28 28 27 27 27 26 25 25 24 23 23 24 24 24 23 24 24 24
38 38 37 37 36 36 36 37 36 36 34 34 34 35 35 34 34 33 33 33 33 33 33 32 29 28 28 28 28 28 27 26 25 25 25 25 26 26 25 25 25 25 25 25
37 38 37 36 36 36 36 36 35 35 35 35 36 36 35 34 33 34 34 34 34 34 34 32 31 30 29 28 29 29 28 27 26 27 27 27 27 26 26 26 27 26 25 25
35 37 37 37 36 36 35 35 34 34 35 34 35 35 35 34 34 34 34 34 34 33 32 31 31 30 30 30 30 30 29 28 28 28 28 28 28 27 27 26 27 27 26 26
Wind_Direction
207 204 200 194 189 181 185 194 234 262 311 330 338 354 4 9 20 25 27 31 39 43 42 44 48 48 50 52 55 58 61 64 66 66 66 65 61 59 60 61 62 61 59 57
210 207 202 200 197 195 205 213 228 253 272 298 315 332 340 356 10 21 21 24 34 42 43 42 45 47 46 50 53 56 59 61 62 63 61 58 55 55 59 57 56 56 55 49
213 206 203 204 202 204 211 219 225 241 253 263 286 300 313 332 352 6 14 16 26 36 43 42 40 40 42 47 51 52 53 55 57 57 55 52 52 51 51 51 48 48 50 45
212 206 206 208 209 212 215 220 226 237 250 258 272 285 305 313 324 340 356 358 15 24 34 37 37 37 38 42 45 47 46 46 48 49 48 44 43 44 45 42 38 41 40 32
212 209 210 214 213 215 215 218 224 230 241 253 265 270 284 298 310 327 335 345 1 12 28 31 31 33 33 34 36 39 38 43 44 42 41 38 38 39 37 35 36 31 22 18
214 214 214 215 215 216 213 214 223 229 235 241 247 257 263 280 303 320 324 334 345 354 6 23 25 27 26 25 26 33 34 34 33 32 31 32 33 32 29 27 24 24 21 18
215 216 217 216 217 218 216 217 223 229 232 236 238 249 267 275 287 305 317 322 331 336 349 3 10 13 13 12 14 16 27 27 27 26 23 22 18 17 19 20 17 16 12 10
217 216 216 218 220 222 221 224 228 231 233 236 242 250 260 265 278 291 298 305 323 323 322 331 346 357 358 359 5 8 8 9 11 16 19 18 13 10 9 11 16 18 15 9
219 218 217 221 222 224 224 227 231 234 235 237 238 244 252 260 268 280 284 289 301 308 305 304 316 332 340 345 348 352 355 357 357 356 1 2 3 1 1 2 7 9 7 1
220 219 216 219 221 224 226 226 228 231 234 238 237 244 251 255 266 274 279 286 289 290 289 294 305 318 324 329 329 329 335 340 344 348 350 352 352 351 352 354 355 355 353 349
220 221 215 217 220 222 224 225 226 230 234 239 239 240 245 252 262 272 281 284 276 269 275 284 296 306 307 310 317 318 321 322 328 337 340 341 344 346 345 344 344 341 339 336
220 223 220 218 220 224 227 229 229 230 234 236 237 238 240 244 252 268 278 282 275 267 274 279 287 294 298 300 306 313 318 318 317 325 331 334 337 339 339 338 338 335 331 328
220 222 222 219 220 224 225 226 230 231 233 234 237 240 237 243 251 257 265 275 271 266 272 275 281 288 291 293 295 302 310 315 317 319 322 326 330 329 333 335 333 330 328 324
222 224 225 223 221 223 226 226 228 230 233 235 236 237 238 245 249 254 261 265 267 262 264 265 274 283 285 287 289 293 299 306 308 311 314 316 321 323 326 327 326 325 326 324
224 226 227 226 223 225 228 227 227 229 232 237 238 240 241 244 248 253 260 262 264 262 260 261 268 274 276 279 283 286 290 296 299 303 306 308 311 315 317 318 319 319 320 320
224 227 228 226 224 225 228 230 230 230 232 236 239 240 239 240 244 249 255 261 262 266 265 265 266 270 273 274 280 284 286 288 290 293 298 302 304 307 310 312 313 313 315 316
226 228 228 226 226 227 230 231 232 232 232 235 237 238 235 237 240 244 250 257 264 266 268 267 266 269 272 275 280 283 284 284 285 288 292 294 297 301 304 305 307 309 310 310
225 227 229 229 228 229 230 230 231 233 233 235 237 236 235 239 241 244 249 253 258 263 266 265 262 265 267 272 276 277 279 280 283 284 285 289 293 296 298 299 302 304 306 308
225 226 230 231 230 230 228 228 229 232 233 234 235 234 236 238 242 245 250 254 257 260 262 268 266 265 267 268 271 273 274 277 278 280 284 287 290 292 295 297 299 301 302 304
227 230 231 231 232 232 228 228 230 232 233 231 232 234 237 240 243 246 250 255 257 259 261 265 268 267 266 266 268 269 271 275 277 280 283 286 287 288 291 295 297 299 300 301
228 230 231 232 232 232 230 229 230 231 234 234 234 236 238 241 246 248 251 253 256 259 261 263 265 264 265 264 265 267 268 270 274 277 280 283 285 288 291 294 296 297 300 302
229 230 232 233 233 233 231 231 232 233 233 234 234 237 240 242 245 248 250 252 255 258 260 260 261 261 263 262 262 263 266 267 270 273 277 280 283 286 288 292 295 298 301 303
230 231 232 233 234 233 233 233 234 234 234 232 234 236 241 243 245 248 251 254 256 259 261 261 262 263 264 263 260 261 264 266 268 271 275 279 282 284 286 288 291 294 298 301
229 231 233 233 234 233 234 234 236 237 235 234 234 237 240 243 245 248 250 253 256 258 261 261 262 264 265 265 263 264 266 268 270 272 273 276 279 282 284 287 288 291 295 297
233 232 233 233 233 233 234 234 236 235 235 237 236 238 242 243 245 247 250 252 256 258 258 260 261 262 263 263 262 263 265 267 270 272 274 277 280 282 283 285 287 288 290 293
232 234 234 234 234 235 234 234 234 234 235 238 239 241 243 245 247 249 251 253 254 255 256 259 261 262 262 263 263 264 265 267 269 271 273 276 279 281 282 284 286 288 289 290
Height
5915 5918 5920 5923 5925 5926 5927 5927 5927 5927 5927 5928 5928 5928 5928 5926 5925 5924 5923 5921 5919 5917 5916 5914 5913 5911 5910 5909 5907 5905 5904 5903 5902 5900 5899 5899 5898 5897 5896 5895 5894 5893 5892 5891
5912 5916 5919 5921 5922 5924 5925 5925 5926 5926 5927 5927 5928 5928 5927 5927 5926 5925 5924 5922 5920 5918 5917 5916 5914 5913 5912 5910 5909 5907 5906 5905 5903 5902 5901 5900 5899 5898 5897 5896 5895 5894 5893 5892
5909 5914 5915 5917 5919 5921 5922 5924 5925 5926 5926 5926 5927 5927 5926 5926 5926 5925 5924 5923 5922 5920 5918 5917 5916 5914 5913 5912 5910 5909 5908 5906 5905 5904 5903 5902 5900 5899 5898 5896 5896 5895 5894 5893
5905 5909 5911 5913 5915 5918 5920 5922 5923 5924 5925 5925 5926 5925 5925 5926 5926 5925 5924 5923 5921 5921 5919 5918 5917 5915 5914 5913 5912 5910 5909 5907 5906 5905 5904 5903 5901 5900 5899 5898 5897 5896 5895 5894
5901 5905 5907 5909 5913 5915 5918 5920 5921 5922 5922 5923 5923 5923 5925 5924 5924 5924 5924 5923 5922 5921 5920 5918 5917 5916 5915 5914 5913 5911 5910 5909 5908 5906 5905 5904 5902 5901 5900 5899 5897 5896 5895 5894
5897 5900 5902 5906 5909 5912 5915 5916 5917 5919 5919 5920 5921 5921 5922 5922 5923 5923 5923 5922 5922 5921 5920 5919 5918 5917 5915 5914 5913 5912 5911 5910 5908 5907 5906 5904 5903 5901 5900 5899 5898 5896 5895 5894
5891 5894 5898 5901 5904 5908 5910 5912 5914 5915 5916 5917 5919 5918 5920 5921 5921 5922 5922 5922 5921 5921 5920 5919 5918 5917 5916 5915 5914 5912 5911 5910 5909 5907 5906 5905 5903 5902 5900 5899 5898 5896 5895 5894
5884 5889 5893 5896 5900 5903 5905 5908 5910 5912 5913 5914 5915 5915 5918 5918 5919 5919 5919 5920 5920 5919 5919 5918 5917 5917 5916 5915 5914 5912 5911 5910 5909 5907 5906 5905 5903 5902 5900 5899 5897 5896 5894 5893
5879 5884 5888 5891 5895 5898 5900 5903 5906 5908 5909 5910 5911 5912 5914 5914 5915 5916 5916 5917 5917 5918 5917 5917 5916 5916 5915 5914 5914 5912 5911 5910 5908 5907 5906 5904 5903 5902 5900 5898 5897 5895 5894 5893
5873 5878 5882 5886 5889 5892 5895 5898 5901 5902 5903 5905 5907 5908 5910 5911 5912 5912 5913 5914 5914 5916 5916 5916 5915 5915 5915 5913 5913 5912 5910 5909 5907 5906 5905 5903 5902 5901 5899 5898 5896 5895 5893 5892
5867 5871 5876 5879 5881 5885 5889 5892 5894 5896 5899 5901 5902 5907 5907 5907 5908 5909 5910 5911 5912 5913 5913 5914 5914 5914 5913 5912 5911 5910 5909 5908 5907 5905 5904 5903 5901 5900 5898 5897 5895 5894 5892 5890
5860 5864 5869 5873 5877 5880 5883 5886 5889 5891 5893 5895 5897 5903 5903 5903 5904 5906 5907 5908 5909 5910 5910 5910 5911 5911 5911 5910 5910 5909 5908 5906 5905 5904 5903 5901 5900 5898 5897 5895 5893 5891 5890 5888
5854 5858 5862 5867 5872 5874 5876 5880 5882 5885 5888 5890 5892 5898 5898 5899 5900 5902 5903 5904 5905 5906 5907 5907 5907 5908 5908 5908 5908 5907 5906 5904 5904 5902 5901 5899 5898 5896 5894 5893 5891 5889 5887 5885
5848 5851 5856 5860 5864 5867 5870 5874 5876 5879 5881 5884 5887 5890 5893 5894 5896 5898 5899 5900 5901 5902 5903 5903 5904 5905 5905 5905 5905 5904 5903 5902 5901 5900 5899 5897 5896 5894 5893 5891 5889 5887 5885 5883
5841 5845 5849 5854 5858 5861 5864 5867 5870 5873 5876 5879 5882 5885 5888 5889 5891 5893 5894 5895 5897 5897 5898 5899 5900 5901 5901 5901 5901 5901 5900 5899 5898 5897 5896 5895 5893 5892 5890 5889 5887 5885 5882 5880
5833 5838 5842 5847 5850 5854 5857 5861 5864 5867 5870 5872 5876 5879 5882 5884 5885 5887 5889 5890 5892 5892 5893 5894 5895 5896 5896 5897 5897 5897 5897 5896 5895 5894 5893 5892 5890 5889 5887 5885 5883 5881 5879 5877
5826 5831 5835 5839 5843 5846 5849 5854 5857 5860 5863 5866 5869 5873 5876 5878 5880 5882 5884 5885 5886 5887 5888 5889 5890 5891 5892 5892 5892 5892 5892 5892 5891 5890 5889 5888 5887 5885 5884 5882 5880 5878 5876 5874
5819 5823 5827 5831 5836 5838 5844 5847 5850 5853 5856 5859 5862 5866 5869 5872 5874 5876 5878 5880 5881 5882 5883 5884 5884 5885 5886 5886 5887 5887 5887 5887 5886 5886 5885 5884 5882 5881 5879 5877 5876 5874 5872 5869
5812 5816 5819 5823 5826 5830 5836 5839 5842 5845 5848 5851 5854 5858 5861 5864 5867 5869 5871 5873 5874 5875 5876 5877 5877 5879 5880 5881 5881 5881 5881 5881 5881 5880 5880 5879 5877 5876 5874 5873 5871 5869 5867 5864
5804 5808 5812 5815 5818 5822 5830 5833 5834 5838 5840 5844 5847 5850 5854 5857 5860 5863 5865 5866 5867 5868 5870 5871 5872 5872 5874 5875 5875 5875 5875 5875 5875 5875 5874 5873 5871 5870 5869 5867 5865 5863 5861 5858
5795 5799 5803 5807 5810 5815 5821 5824 5827 5831 5834 5837 5840 5843 5846 5850 5853 5856 5858 5859 5860 5862 5863 5865 5865 5865 5866 5867 5868 5868 5869 5869 5869 5868 5867 5866 5866 5864 5863 5861 5860 5858 5856 5853
5787 5791 5795 5799 5802 5809 5812 5816 5820 5823 5827 5829 5832 5836 5839 5842 5845 5847 5849 5851 5853 5855 5856 5857 5858 5859 5860 5860 5861 5861 5861 5861 5861 5861 5860 5859 5859 5858 5857 5855 5854 5852 5850 5848
5779 5783 5787 5791 5796 5800 5803 5807 5810 5813 5817 5821 5825 5828 5831 5834 5836 5839 5841 5843 5845 5847 5848 5850 5851 5852 5852 5853 5853 5853 5853 5853 5854 5854 5854 5853 5853 5852 5850 5849 5848 5846 5844 5842
5771 5775 5779 5783 5787 5791 5794 5798 5802 5806 5809 5813 5816 5820 5824 5826 5828 5830 5833 5835 5837 5839 5840 5841 5843 5844 5845 5845 5846 5846 5846 5846 5847 5847 5847 5846 5846 5845 5843 5842 5841 5839 5838 5836
5764 5767 5771 5774 5779 5782 5786 5790 5794 5797 5801 5805 5808 5812 5815 5817 5819 5822 5825 5827 5828 5830 5831 5833 5834 5835 5836 5837 5838 5838 5839 5839 5840 5840 5840 5839 5838 5838 5837 5835 5834 5832 5831 5829
5756 5759 5763 5767 5771 5774 5778 5782 5786 5790 5793 5797 5800 5803 5806 5809 5811 5813 5816 5818 5819 5821 5822 5824 5825 5827 5828 5829 5830 5830 5831 5831 5832 5832 5832 5832 5831 5830 5829 5828 5827 5825 5823 5822